THORAD DELTA 1 DEB, 42608

Orbit data source: Space-Track

THORAD DELTA 1 DEB, 42608 is space debris in SSO originally from a launch on Fri, 15 Nov 1974 UTC launched from the Air Force Western Test Range (AFWTR). Debris objects in space refer to the collection of defunct objects orbiting the Earth. Examples of debris include non-operational satellites, rocket bodies, and fragments generated from explosions, collisions, or faulty payload assembly.

Loading next visibility...
Identifier
42608, 1974-089FZ
Orbit
SSO
Country
Flag of USUS
Related business
Manufacturer
Unknown
Mission
Spacecraft
Bus & Motor
Unknown
Mass
Unknown
Launch date (UTC)
1974-11-15 (51 years ago)
Launch vehicle
Unknown
Launch site
Air Force Western Test Range (AFWTR)
Object type
Payload
Rocket body
Debris
Shape & HBR
Unknown shape, 0.1 m
Radar Cross Section
Small (<0.1 m²)

Expand to show TLE details & history
Last TLE update: 2 days ago

TLE from 2 days ago
0 THORAD DELTA 1 DEB
1 42608U 74089FZ  26121.91570953 -.00000032  00000-0  12107-3 0  9999
2 42608 102.5394 110.0747 0073173 298.3073  61.0614 12.28112336557744
Epoch: 2026-05-01T21:58Z
TLE epoch observation values (Epoch: 2026-05-01T21:58:37.303Z)
Latitude
0.00003°
Longitude
-79.42185°
Altitude
1,532.14 km
Speed
7.112 km/s
True Right ascension
07h 20m 17s
True Declination
0° 00' 00"
Sunlit
Object was in daylight at epoch
Visualization orbit readout
Latitude
Unknown
Longitude
Unknown
Altitude
Unknown
Speed
Unknown
Apparent Right ascension
Unknown
Apparent Declination
Unknown
Sunlit
N/A
Visualization observer readout
Local Sidereal Time
04:18:19
Azimuth
Unknown
Elevation
Unknown
Doppler factor
Unknown
Orbital elements
Apogee altitude
1,613.074 km
Perigee altitude
1,496.976 km
Semi-major axis
7,933.162 km
Eccentricity
0.00732
Inclination
102.5394°
RAAN
110.0747°
Arg. of periapsis
298.3073°
True anomaly
61.79845°
Mean anomaly
61.0614°
Eccentric anomaly
61.4296°
Mean motion
3.07166 °/min
Orbital period
117.2 mins
BSTAR
0.00012107
Loading maneuver chart data...
Computing Atmospheric mass density...

Documentation

Showing up to 5 results
|